Regional Weather Roundup
Issued by NWS

Home | Current Version | Previous Version | Graphics & Text | Print | Product List | Glossary On
Versions: 1 2 3 4 5 6 7 8 9 10 11 12 13 14 15 16 17 18 19 20 21 22 23 24 25 26 27 28 29 30 31 32 33 34 35 36 37 38 39 40 41 42 43 44 45 46 47 48 49 50
520
ASUS43 KLOT 260904
RWRIL

ILLINOIS REGIONAL WEATHER ROUNDUP
NATIONAL WEATHER SERVICE CHICAGO/ROMEOVILLE IL
400 AM CDT MON JUN 26 2017

NOTE: "FAIR" INDICATES FEW OR NO CLOUDS BELOW 12,000 FEET WITH NO
SIGNIFICANT WEATHER AND/OR OBSTRUCTIONS TO VISIBILITY.

* THESE STATIONS ARE NOT UNDER NWS QUALITY CONTROL. THEY ALSO MAY NOT
  REPORT WEATHER SUCH AS PRECIPITATION OR FOG.

ILZ001-002-007-009-015-016-024-261000-
NORTHWEST ILLINOIS

CITY           SKY/WX    TMP DP  RH WIND       PRES   REMARKS
MOLINE         CLEAR     51  46  83 CALM      30.15R
STERLING*      CLEAR     51  49  92 W6        30.13S
SAVANNA*       CLEAR     56  47  71 NW6       30.13R
$$

ILZ003-004-008-010-011-017-018-261000-
NORTH CENTRAL ILLINOIS

CITY           SKY/WX    TMP DP  RH WIND       PRES   REMARKS
ROCKFORD       CLEAR     53  47  79 W7        30.13S
FREEPORT*      CLEAR     50  46  86 W5        30.13S
ROCHELLE*      CLEAR     49  48  95 W3        30.12S
DE KALB*       PTCLDY    53  49  85 W7        30.11S
PERU*          CLEAR     52  48  87 W7        30.13S
$$

ILZ005-006-012>014-019>023-261000-
NORTHEAST ILLINOIS

CITY           SKY/WX    TMP DP  RH WIND       PRES   REMARKS
CHICAGO-OHARE  CLEAR     54  49  83 W6        30.09S
CHICAGO-MIDWAY CLEAR     57  50  77 W5        30.09F
AURORA         CLEAR     50  48  93 W5        30.11S
LANSING*       CLEAR     51  47  86 CALM      30.11S
JOLIET*        CLEAR     54  51  89 CALM      30.11F
WAUKEGAN       PTCLDY    54  52  93 CALM      30.08R
DUPAGE AIRPORT CLEAR     52  51  97 SW5       30.09S
WHEELING       CLEAR     55  52  89 CALM      30.11R
MORRIS*        CLEAR     53  49  86 W7        30.11S
ROMEOVILLE*    CLEAR     52  47  82 W6        30.11S
NORTHERLY ISL    N/A     59  49  69 W1          N/A
$$

LMZ740>746-261000-
SOUTHERN LAKE MICHIGAN

STATION/POSITION SKY/WX   TEMP    WIND        PRES    VSBY  WAVE
                          AIR SEA DIR/SP/G                  HT/PER
                          (F)     (DEG/KT/KT) (MB)    (MI)  (FT/S)
SOUTHERN BUOY              60 61  320/ 16/ 17 1017.4          3/ 5
WILMETTE HARBOR            59 63  260/  8/ 10   N/A           1/ 2
HARRISON CRIB              61     260/ 11/ 11   N/A
BURNHAM HARBOR             59                   N/A
CALUMET HARBOR             58     230/  4/  5 1018.8R
BURNS HARBOR               61     240/  8/ 12 1019.6R
MICHIGAN CITY              61     260/ 14/ 15   N/A
MICHIGAN CITY 6N           62 66  280/ 10/ 14   N/A           4/ 5
ST. JOSEPH                 63 68  310/ 16/ 21 1018.3R         6/ 5
$$

ILZ025>027-034>036-040-047-049-050-058-095>099-261000-
WEST-CENTRAL ILLINOIS

CITY           SKY/WX    TMP DP  RH WIND       PRES   REMARKS
QUINCY         CLEAR     54  50  86 CALM      30.18S
GALESBURG*     CLEAR     50  47  90 CALM      30.17S
MACOMB*        PTCLDY    50  47  92 W5        30.19S
JACKSONVILLE*  CLEAR     53  47  81 SW6       30.18R
PITTSFIELD*    CLEAR     57  49  74 CALM      30.20S
$$

ILZ028>032-037-038-041>044-048-051>054-059>061-261000-
CENTRAL ILLINOIS

CITY           SKY/WX    TMP DP  RH WIND       PRES   REMARKS
PONTIAC        CLEAR     55  53  91 SW5       30.15R
BLOOMINGTON    CLEAR     54  49  83 SW6       30.16S
DECATUR        PTCLDY    54  49  83 W3        30.16S
PEORIA         CLEAR     53  49  86 CALM      30.15S
LACON*         CLEAR     53  50  92 CALM      30.13S
LINCOLN*       PTCLDY    57  49  74 CALM      30.17R
SPRINGFIELD    PTCLDY    54  49  83 SW6       30.17S
TAYLORVILLE    PTCLDY    51  48  90 SW6       30.18R
$$

ILZ033-039-045-046-055>057-062-063-261000-
EAST-CENTRAL ILLINOIS

CITY           SKY/WX    TMP DP  RH WIND       PRES   REMARKS
CHAMPAIGN        N/A    N/A N/A N/A MISG      30.16R
RANTOUL*       PTCLDY    54  50  89 CALM      30.15S
MATTOON        CLEAR     56  52  86 SW5       30.16S
PARIS*         CLEAR     52  49  89 SW3       30.17R
$$

ILZ079-100>102-261000-
SOUTHWEST ILLINOIS

CITY           SKY/WX    TMP DP  RH WIND       PRES   REMARKS
ALTON          CLEAR     55  51  87 CALM      30.21R
BELLEVILLE     CLEAR     55  49  83 CALM      30.21S
CAHOKIA*       CLEAR     54  49  83 CALM      30.20S
SPARTA*        CLEAR     60  49  68 CALM      30.22R
$$

ILZ064>066-069>071-074>076-080>082-084>086-088>090-092>094-261000-
SOUTH-CENTRAL ILLINOIS

CITY           SKY/WX    TMP DP  RH WIND       PRES   REMARKS
CARBONDALE     CLOUDY    62  59  90 CALM      30.20R
CAIRO*         CLOUDY    66  56  68 N3        30.18S
EFFINGHAM*     CLEAR     53  51  94 CALM      30.20R
MARION         CLOUDY    61  57  88 CALM      30.20S
MT. VERNON     CLEAR     50  50 100 CALM      30.20R FOG
CENTRALIA*     CLEAR     54  51  90 CALM      30.19S
SALEM*         CLEAR     55  50  82 CALM      30.19S
METROPOLIS*    CLOUDY    65  56  71 CALM      30.19S
$$

ILZ067-068-072-073-078-083-087-091-261000-
SOUTHEAST ILLINOIS

CITY           SKY/WX    TMP DP  RH WIND       PRES   REMARKS
LAWRENCEVILLE  CLEAR     53  52  96 CALM      30.18R
FLORA*         CLEAR     53  50  88 W3        30.19S
FAIRFIELD*     CLEAR     53  51  95 CALM      30.18R
HARRISBURG*    CLOUDY    59  56  92 CALM      30.20R
ROBINSON*      CLEAR     50  49  96 CALM      30.18S
CARMI*         CLEAR     55  54  94 W3        30.18S
$$

ABBREVIATIONS USED IN REMARKS
   TC - TEMPERATURE IN CELSIUS
  WCI - WIND CHILL INDEX
   HX - HEAT INDEX
  VSB - VISIBILITY
$$





USA.gov is the U.S. government's official web portal to all federal, state and local government web resources and services.